Location: Finkenwalde
(53.3770°N, 14.6418°E)
Time: 06:17:07
(UTC+00:00)

Cosmos 540 Rocket - Pass Details

Date: 05 February 2023
Orbit: 740 x 751 km, 74.1° (Epoch: 24 March)

Event Time Altitude Azimuth Distance (km) Brightness Sun altitude
Rises 17:02:45 0° 333° (NNW) 3,210 6.9 -10.8°
Reaches altitude 10° 17:05:07 10° 332° (NNW) 2,280 6.2 -11.2°
Maximum altitude 17:10:18 81° 246° (WSW) 763 3.6 -11.9°
Drops below altitude 10° 17:15:25 10° 160° (SSE) 2,257 5.8 -12.7°
Sets 17:17:45 0° 160° (SSE) 3,174 6.6 -13.0°
